| time (UTC) | temp F | wind direction | speed knots | gust knots | rain 1hr in | rain 24hr in | rain mn in | humidity % | barometer mb |
| 20260510065923 | 64 | 96 | 4.3 | 8.7 | 0.00 | 0.39 | 0.00 | 83 | 1010.4 |
| 20260510062929 | 64 | 96 | 2.6 | 11.3 | 0.00 | 0.39 | 0.00 | 83 | 1010.1 |
| 20260510055924 | 63 | 90 | 1.7 | 7.8 | 0.00 | 0.39 | 0.00 | 82 | 1010.0 |
| 20260510052922 | 63 | 46 | 1.7 | 7.0 | 0.00 | 0.39 | 0.00 | 83 | 1009.8 |
| 20260510045958 | 62 | 98 | 0.9 | 4.3 | 0.00 | 0.39 | 0.00 | 84 | 1009.5 |
| 20260510042931 | 61 | 119 | 0.9 | 2.6 | 0.00 | 0.39 | 0.00 | 85 | 1009.5 |
| 20260510035919 | 60 | 70 | 0.9 | 7.8 | 0.00 | 0.39 | 0.00 | 87 | 1009.4 |
| 20260510032933 | 60 | 87 | 2.6 | 4.3 | 0.00 | 0.39 | 0.00 | 88 | 1009.6 |
| 20260510025921 | 60 | 165 | 0.0 | 0.0 | 0.00 | 0.39 | 0.00 | 88 | 1010.0 |
| 20260510022916 | 60 | 86 | 0.0 | 1.7 | 0.04 | 0.39 | 0.08 | 87 | 1010.2 |
| 20260510015924 | 60 | 136 | 0.9 | 5.2 | 0.12 | 0.39 | 0.08 | 87 | 1010.4 |
| 20260510012920 | 60 | 121 | 0.0 | 2.6 | 0.16 | 0.35 | 0.07 | 87 | 1010.4 |
| 20260510005940 | 60 | 106 | 1.7 | 3.5 | 0.12 | 0.28 | 0.06 | 86 | 1010.3 |
| 20260510002933 | 60 | 130 | 0.0 | 2.6 | 0.04 | 0.20 | 0.04 | 86 | 1010.7 |
| 20260509235940 | 60 | 217 | 0.0 | 1.7 | 0.00 | 0.16 | 0.03 | 86 | 1010.5 |
| 20260509232913 | 61 | 155 | 0.9 | 1.7 | 0.04 | 0.16 | 0.03 | 85 | 1010.5 |
| 20260509225930 | 62 | 157 | 0.0 | 0.9 | 0.04 | 0.16 | 0.03 | 84 | 1011.4 |
| 20260509222915 | 62 | 157 | 0.0 | 0.9 | 0.00 | 0.12 | 0.02 | 83 | 1011.9 |
| 20260509215930 | 63 | 163 | 0.9 | 1.7 | 0.00 | 0.12 | 0.02 | 81 | 1011.2 |
| 20260509212917 | 63 | 164 | 0.0 | 2.6 | 0.08 | 0.12 | 0.02 | 77 | 1011.5 |
| 20260509205931 | 64 | 90 | 2.6 | 7.0 | 0.12 | 0.12 | 0.02 | 75 | 1011.4 |
| 20260509202928 | 65 | 96 | 0.9 | 4.3 | 0.04 | 0.04 | 0.01 | 71 | 1011.7 |
| 20260509195917 | 67 | 109 | 2.6 | 8.7 | 0.00 | 0.00 | 0.00 | 65 | 1011.5 |
| 20260509192931 | 68 | 86 | 4.3 | 9.6 | 0.00 | 0.00 | 0.00 | 61 | 1011.4 |
| 20260509185918 | 68 | 76 | 5.2 | 9.6 | 0.00 | 0.00 | 0.00 | 60 | 1011.0 |
| 20260509182911 | 68 | 76 | 3.5 | 7.0 | 0.00 | 0.00 | 0.00 | 61 | 1010.9 |
| 20260509175920 | 69 | 111 | 2.6 | 7.8 | 0.00 | 0.00 | 0.00 | 62 | 1011.2 |
| 20260509172915 | 69 | 125 | 3.5 | 8.7 | 0.00 | 0.00 | 0.00 | 61 | 1010.9 |
| 20260509165929 | 70 | 116 | 3.5 | 7.8 | 0.00 | 0.00 | 0.00 | 61 | 1011.3 |
| 20260509162916 | 71 | 28 | 2.6 | 8.7 | 0.00 | 0.00 | 0.00 | 59 | 1011.0 |
| 20260509155911 | 72 | 74 | 2.6 | 13.0 | 0.00 | 0.00 | 0.00 | 57 | 1011.1 |
| 20260509152946 | 73 | 109 | 2.6 | 7.0 | 0.00 | 0.00 | 0.00 | 57 | 1011.0 |
| 20260509145913 | 73 | 78 | 3.5 | 15.6 | 0.00 | 0.00 | 0.00 | 55 | 1011.6 |
| 20260509142926 | 72 | 123 | 4.3 | 9.6 | 0.00 | 0.00 | 0.00 | 55 | 1012.2 |
| 20260509135914 | 72 | 129 | 4.3 | 13.0 | 0.00 | 0.00 | 0.00 | 53 | 1012.6 |
| 20260509132929 | 72 | 84 | 3.5 | 8.7 | 0.00 | 0.00 | 0.00 | 56 | 1013.1 |
| 20260509125924 | 72 | 163 | 3.5 | 7.8 | 0.00 | 0.00 | 0.00 | 56 | 1013.5 |
| 20260509122939 | 71 | 109 | 4.3 | 11.3 | 0.00 | 0.00 | 0.00 | 58 | 1013.6 |
| 20260509115933 | 72 | 88 | 7.0 | 15.6 | 0.00 | 0.00 | 0.00 | 56 | 1014.0 |
| 20260509112923 | 73 | 115 | 7.8 | 19.1 | 0.00 | 0.00 | 0.00 | 52 | 1014.4 |
| 20260509105939 | 71 | 113 | 5.2 | 13.0 | 0.00 | 0.00 | 0.00 | 54 | 1014.6 |
| 20260509102922 | 71 | 84 | 3.5 | 12.2 | 0.00 | 0.00 | 0.00 | 52 | 1014.8 |
| 20260509095918 | 71 | 109 | 6.1 | 10.4 | 0.00 | 0.00 | 0.00 | 58 | 1014.9 |
| 20260509092932 | 71 | 117 | 5.2 | 9.6 | 0.00 | 0.00 | 0.00 | 60 | 1015.0 |
| 20260509085920 | 70 | 42 | 3.5 | 11.3 | 0.00 | 0.00 | 0.00 | 56 | 1015.1 |
| 20260509082932 | 70 | 102 | 3.5 | 7.0 | 0.00 | 0.00 | 0.00 | 58 | 1015.3 |
| 20260509075926 | 69 | 144 | 2.6 | 7.0 | 0.00 | 0.00 | 0.00 | 57 | 1015.6 |
| 20260509072941 | 67 | 119 | 3.5 | 6.1 | 0.00 | 0.00 | 0.00 | 64 | 1015.4 |